Flag for U.S.A. Weather past 2 weeks in Vincennes, Indiana, U.S.A.

Now
75 °F

Passing clouds.


Feels Like: 73 °F
Forecast: 76 / 92 °F
Wind: No wind

Location: Lawrenceville-Vincennes International Airport

Current Time: Jul 29, 2015 at 5:41:05 AM

Latest Report: Jul 29, 2015 at 4:53 AM


Visibility: 9 mi

Pressure: 29.95 "Hg

Humidity: 94%

Dew point: 73 °F

Location of VincennesLocation

Historic Weather in Vincennes — Graph

°F

Vincennes temperature yesterday

Maximum temperature yesterday: 93 °F (at 4:53 PM)
Minimum temperature yesterday: 73 °F (at 4:53 AM)
Average temperature yesterday: 82 °F

Past Weeks' High & Low Weather Summary

 TemperatureHumidityPressure
High93 °F (Jul 28, 4:53 PM)97% (Jul 14, 5:53 AM)30.05 "Hg (Jul 14, 5:53 AM)
Low61 °F (Jul 22, 6:53 AM)36% (Jul 22, 4:53 PM)29.64 "Hg (Jul 14, 5:53 PM)
Average78 °F77%29.91 "Hg
* Reported Jul 14 3:53 AM — Jul 29 3:53 AM, Vincennes, Weather by CustomWeather, © 2015

Note: Actual official high and low records may vary slightly from our data, if they occured in-between our weather recording intervals... More about our weather records

Advertising

Vincennes weather history for previous 24 hours

 ConditionsComfort  
Time TempWeatherWind HumidityBarometerVisibility
3:53 AM
Wed, Jul 29
75 °FClear.3 mph94%29.93 "Hg10 mi
2:53 AM75 °FClear.3 mph94%29.93 "Hg9 mi
1:53 AM76 °FClear.5 mph94%29.96 "Hg10 mi
12:53 AM77 °FClear.5 mph94%29.96 "Hg9 mi
11:53 PM
Tue, Jul 28
79 °FClear.5 mph90%29.94 "Hg9 mi
10:53 PM81 °FClear.5 mph91%29.96 "Hg7 mi
9:53 PM82 °FSunny.5 mph85%29.94 "Hg9 mi
8:53 PM87 °FSunny.No wind72%29.91 "Hg10 mi
7:53 PM89 °FSunny.No wind70%29.90 "Hg10 mi
6:53 PM92 °FSunny.No wind62%29.89 "Hg10 mi
5:53 PM93 °FSunny.6 mph60%29.91 "Hg10 mi
4:53 PM93 °FPartly sunny.3 mph60%29.93 "Hg10 mi
3:53 PM91 °FScattered clouds.6 mph64%29.93 "Hg10 mi
2:53 PM90 °FSunny.5 mph66%29.94 "Hg10 mi
1:53 PM91 °FScattered clouds.5 mph64%29.96 "Hg10 mi
12:53 PM87 °FScattered clouds.3 mph69%29.97 "Hg10 mi
11:53 AM86 °FSunny.5 mph72%29.97 "Hg10 mi
11:00 AM83 °FPartly sunny.3 mph82%29.98 "Hg8 mi
9:53 AM80 °FFog.5 mph87%29.97 "Hg6 mi
9:00 AM77 °FFog.No wind94%29.98 "Hg1 mi
8:00 AM75 °FFog.No wind94%29.97 "Hg5 mi
6:53 AM74 °FFog.No wind94%29.94 "Hg5 mi
5:53 AM74 °FFog.No wind94%29.93 "Hg6 mi
Weather by CustomWeather, © 2015

See weather overviewHow to use our weather pages